Wisconsin Dells, Wisconsin, United States (53965)
Lat: 43.63N, Lon: 89.77W
Wx Zone: WIZ057
Local Info
Past Weather Observations for Saturday, November 22, 2014

NOTE: This archive is for the closest National Weather Service station to Wisconsin Dells. Information may differ from the station used for current weather conditions.

Click here for Long-term Archive

Time Weather Temperature Dewpoint Humidity Pressure Winds Precip Visibility
23:55
Overcast
Fog And Mist
50°F / 10°C 48°F / 9°C 94% 29.68 in
(1005 mb)
SSE 13.8 mph
(SSE 22 kph)
- 5SM
23:35
Overcast
Fog And Mist
50°F / 10°C 48°F / 9°C 94% 29.68 in
(1005 mb)
SSE 13.8 mph
(SSE 22 kph)
- 4SM
23:15
Overcast
Fog And Mist
48°F / 9°C 48°F / 9°C 100% 29.68 in
(1005 mb)
SSE 9.2 mph
(SSE 15 kph)
- 2SM
22:55
Overcast
Fog And Mist
48°F / 9°C 46°F / 8°C 94% 29.71 in
(1006 mb)
S 6.9 mph
(S 11 kph)
- 1SM
22:35
Overcast
Fog And Mist
48°F / 9°C 46°F / 8°C 94% 29.71 in
(1006 mb)
S 8.1 mph
(S 13 kph)
- 3/4SM
22:15
Overcast
Fog And Mist
46°F / 8°C 46°F / 8°C 100% 29.71 in
(1006 mb)
S 9.2 mph
(S 15 kph)
- 3/4SM
21:55
Overcast
Fog And Mist
46°F / 8°C 45°F / 7°C 93% 29.71 in
(1006 mb)
S 10.4 mph
(S 17 kph)
- 1 1/4SM
21:35
Overcast
Fog And Mist
46°F / 8°C 45°F / 7°C 93% 29.74 in
(1007 mb)
SSE 9.2 mph
(SSE 15 kph)
- 1 1/4SM
21:15
Overcast
Fog And Mist
46°F / 8°C 45°F / 7°C 93% 29.74 in
(1007 mb)
S 9.2 mph
(S 15 kph)
- 1 3/4SM
20:55
Overcast
Fog And Mist
46°F / 8°C 45°F / 7°C 93% 29.74 in
(1007 mb)
SSE 9.2 mph
(SSE 15 kph)
- 2SM
20:35
Overcast
Fog And Mist
45°F / 7°C 45°F / 7°C 100% 29.74 in
(1007 mb)
S 9.2 mph
(S 15 kph)
- 2SM
20:15
Overcast
Fog And Mist
45°F / 7°C 43°F / 6°C 93% 29.74 in
(1007 mb)
S 9.2 mph
(S 15 kph)
- 2 1/2SM
19:55
Overcast
Fog And Mist
45°F / 7°C 43°F / 6°C 93% 29.74 in
(1007 mb)
S 6.9 mph
(S 11 kph)
- 4SM
19:35
Overcast
Fog And Mist
45°F / 7°C 43°F / 6°C 93% 29.74 in
(1007 mb)
SSE 6.9 mph
(SSE 11 kph)
- 4SM
19:15
Overcast
Fog And Mist
43°F / 6°C 41°F / 5°C 93% 29.74 in
(1007 mb)
S 4.6 mph
(S 7 kph)
- 4SM
18:55
Overcast
Fog And Mist
43°F / 6°C 41°F / 5°C 93% 29.74 in
(1007 mb)
S 6.9 mph
(S 11 kph)
- 4SM
18:35
Overcast
Fog And Mist
41°F / 5°C 39°F / 4°C 93% 29.74 in
(1007 mb)
Calm - 2SM
18:15
Overcast
Fog And Mist
39°F / 4°C 39°F / 4°C 100% 29.74 in
(1007 mb)
Calm - 2SM
17:55
Overcast
Fog And Mist
41°F / 5°C 39°F / 4°C 93% 29.74 in
(1007 mb)
SW 3.5 mph
(SW 6 kph)
- 3SM
17:35
Overcast
Fog And Mist
41°F / 5°C 39°F / 4°C 93% 29.77 in
(1008 mb)
SW 3.5 mph
(SW 6 kph)
- 3SM
17:15
Overcast
Fog And Mist
41°F / 5°C 39°F / 4°C 93% 29.77 in
(1008 mb)
SW 4.6 mph
(SW 7 kph)
- 2 1/2SM
16:55
Overcast
Fog And Mist
41°F / 5°C 39°F / 4°C 93% 29.77 in
(1008 mb)
SW 6.9 mph
(SW 11 kph)
- 1 1/4SM
16:35
Overcast
Fog And Mist
41°F / 5°C 39°F / 4°C 93% 29.77 in
(1008 mb)
SW 8.1 mph
(SW 13 kph)
- 1 1/4SM
16:15
Overcast
Fog And Mist
41°F / 5°C 39°F / 4°C 93% 29.77 in
(1008 mb)
SW 8.1 mph
(SW 13 kph)
- 2SM
15:55
Overcast
Fog And Mist
41°F / 5°C 39°F / 4°C 93% 29.77 in
(1008 mb)
SW 8.1 mph
(SW 13 kph)
- 2 1/2SM
15:35
Overcast
Fog And Mist
41°F / 5°C 39°F / 4°C 93% 29.77 in
(1008 mb)
SW 9.2 mph
(SW 15 kph)
- 3SM
15:15
Overcast
Fog And Mist
41°F / 5°C 39°F / 4°C 93% 29.77 in
(1008 mb)
SW 10.4 mph
(SW 17 kph)
- 4SM
14:55
Overcast
Fog And Mist
41°F / 5°C 39°F / 4°C 93% 29.77 in
(1008 mb)
SW 9.2 mph
(SW 15 kph)
- 4SM
14:35
Overcast
Fog And Mist
41°F / 5°C 39°F / 4°C 93% 29.77 in
(1008 mb)
SW 11.5 mph
(SW 19 kph)
- 4SM
14:15
Overcast
Fog And Mist
39°F / 4°C 39°F / 4°C 100% 29.77 in
(1008 mb)
SW 11.5 mph
(SW 19 kph)
- 3SM
13:55
Overcast
Fog And Mist
39°F / 4°C 39°F / 4°C 100% 29.77 in
(1008 mb)
SW 10.4 mph
(SW 17 kph)
- 2 1/2SM
13:35
Overcast
Fog And Mist
39°F / 4°C 39°F / 4°C 100% 29.77 in
(1008 mb)
SW 10.4 mph
(SW 17 kph)
- 2 1/2SM
13:15
Overcast
Fog And Mist
39°F / 4°C 37°F / 3°C 93% 29.77 in
(1008 mb)
SW 10.4 mph
(SW 17 kph)
- 1 3/4SM
12:55
Overcast
Fog And Mist
39°F / 4°C 37°F / 3°C 93% 29.77 in
(1008 mb)
SW 6.9 mph
(SW 11 kph)
- 1 1/4SM
12:35
Overcast
Fog And Mist
39°F / 4°C 37°F / 3°C 93% 29.8 in
(1009 mb)
SW 3.5 mph
(SW 6 kph)
- 3/4SM
12:15
Overcast
Drizzle
39°F / 4°C 37°F / 3°C 93% 29.8 in
(1009 mb)
SW 5.8 mph
(SW 9 kph)
- 1/2SM
11:55
Overcast
Fog And Mist
37°F / 3°C 37°F / 3°C 100% 29.8 in
(1009 mb)
SW 8.1 mph
(SW 13 kph)
- 3/4SM
11:35
Overcast
Fog And Mist
37°F / 3°C 37°F / 3°C 100% 29.83 in
(1010 mb)
SW 8.1 mph
(SW 13 kph)
- 1 1/2SM
11:15
Overcast
Fog And Mist
37°F / 3°C 37°F / 3°C 100% 29.83 in
(1010 mb)
SW 9.2 mph
(SW 15 kph)
- 1 3/4SM
10:55
Overcast
Fog And Mist
37°F / 3°C 36°F / 2°C 93% 29.83 in
(1010 mb)
SW 10.4 mph
(SW 17 kph)
- 1 3/4SM
10:35
Overcast
Fog And Mist
37°F / 3°C 36°F / 2°C 93% 29.83 in
(1010 mb)
SW 9.2 mph
(SW 15 kph)
- 2SM
10:15
Overcast
Fog And Mist
37°F / 3°C 36°F / 2°C 93% 29.83 in
(1010 mb)
SW 10.4 mph
(SW 17 kph)
- 2 1/2SM
09:55
Overcast
Fog And Mist
37°F / 3°C 36°F / 2°C 93% 29.86 in
(1011 mb)
SW 9.2 mph
(SW 15 kph)
- 2 1/2SM
09:35
Overcast
Fog And Mist
37°F / 3°C 36°F / 2°C 93% 29.86 in
(1011 mb)
SW 8.1 mph
(SW 13 kph)
- 2 1/2SM
09:15
Overcast
Fog And Mist
36°F / 2°C 36°F / 2°C 100% 29.86 in
(1011 mb)
SW 11.5 mph
(SW 19 kph)
- 2 1/2SM
08:55
Overcast
Fog And Mist
36°F / 2°C 34°F / 1°C 93% 29.89 in
(1012 mb)
SW 8.1 mph
(SW 13 kph)
- 1 3/4SM
08:35
Overcast
Fog And Mist
34°F / 1°C 34°F / 1°C 100% 29.89 in
(1012 mb)
SW 5.8 mph
(SW 9 kph)
- 1 1/2SM
08:15
Overcast
Fog And Mist
34°F / 1°C 34°F / 1°C 100% 29.89 in
(1012 mb)
SSW 4.6 mph
(SSW 7 kph)
- 1SM
07:55
Overcast
Fog And Mist
34°F / 1°C 32°F / 0°C 93% 29.89 in
(1012 mb)
SW 6.9 mph
(SW 11 kph)
- 3/4SM
07:35
Overcast
Fog And Mist
34°F / 1°C 32°F / 0°C 93% 29.89 in
(1012 mb)
SSW 8.1 mph
(SSW 13 kph)
- 1SM
07:15
Overcast
Fog And Mist
34°F / 1°C 32°F / 0°C 93% 29.89 in
(1012 mb)
SW 11.5 mph
(SW 19 kph)
- 1 1/2SM
06:55
Overcast
Fog And Mist
34°F / 1°C 32°F / 0°C 93% 29.89 in
(1012 mb)
SW 10.4 mph
(SW 17 kph)
- 1 1/2SM
06:35
Overcast
Fog And Mist
32°F / 0°C 32°F / 0°C 100% 29.92 in
(1013 mb)
SW 9.2 mph
(SW 15 kph)
- 1 1/2SM
06:15
Overcast
Fog And Mist
32°F / 0°C 32°F / 0°C 100% 29.92 in
(1013 mb)
SW 9.2 mph
(SW 15 kph)
- 1 1/2SM
05:55
Overcast
Fog And Mist
32°F / 0°C 32°F / 0°C 100% 29.92 in
(1013 mb)
SW 10.4 mph
(SW 17 kph)
- 1 1/2SM
05:35
Overcast
Fog And Mist
32°F / 0°C 32°F / 0°C 100% 29.92 in
(1013 mb)
SW 13.8 mph
(SW 22 kph)
- 1 3/4SM
05:15
Overcast
Fog And Mist
32°F / 0°C 32°F / 0°C 100% 29.92 in
(1013 mb)
SW 12.7 mph
(SW 20 kph)
- 1 3/4SM
04:55
Overcast
Fog And Mist
32°F / 0°C 30°F / -1°C 93% 29.92 in
(1013 mb)
SW 11.5 mph
(SW 19 kph)
- 1 1/4SM
04:35
Overcast
Fog And Mist
32°F / 0°C 30°F / -1°C 93% 29.95 in
(1014 mb)
SW 9.2 mph
(SW 15 kph)
- 1 3/4SM
04:15
Overcast
Fog And Mist
32°F / 0°C 30°F / -1°C 93% 29.95 in
(1014 mb)
SW 10.4 mph
(SW 17 kph)
- 1 1/2SM
03:55
Overcast
Fog And Mist
32°F / 0°C 28°F / -2°C 87% 29.95 in
(1014 mb)
SW 10.4 mph
(SW 17 kph)
- 2 1/2SM
03:35
Overcast
Fog And Mist
32°F / 0°C 28°F / -2°C 87% 29.95 in
(1014 mb)
SW 10.4 mph
(SW 17 kph)
- 5SM
03:15
Overcast
32°F / 0°C 28°F / -2°C 87% 29.98 in
(1015 mb)
SSW 10.4 mph
(SSW 17 kph)
- 10SM
02:55
Overcast
32°F / 0°C 27°F / -3°C 80% 29.98 in
(1015 mb)
SW 10.4 mph
(SW 17 kph)
- 10SM
02:35
Overcast
32°F / 0°C 27°F / -3°C 80% 29.98 in
(1015 mb)
SW 12.7 mph
(SW 20 kph)
- 10SM
02:15
Overcast
32°F / 0°C 27°F / -3°C 80% 29.98 in
(1015 mb)
SW 16.1 mph
(SW 26 kph)
- 10SM
01:55
Overcast
32°F / 0°C 25°F / -4°C 75% 29.98 in
(1015 mb)
SW 17.3 mph
(SW 28 kph)
- 10SM
01:35
Overcast
32°F / 0°C 25°F / -4°C 75% 30.01 in
(1016 mb)
SW 15 mph
(SW 24 kph)
- 10SM
01:15
Overcast
32°F / 0°C 25°F / -4°C 75% 30.01 in
(1016 mb)
SW 15 mph
(SW 24 kph)
- 10SM
00:55
Overcast
32°F / 0°C 23°F / -5°C 69% 30.01 in
(1016 mb)
SW 17.3 mph
(SW 28 kph)
- 10SM
00:35
Overcast
32°F / 0°C 19°F / -7°C 60% 30.01 in
(1016 mb)
SW 18.4 mph
(SW 30 kph)
- 10SM
00:15
Overcast
32°F / 0°C 19°F / -7°C 60% 30.04 in
(1017 mb)
SW 15 mph
(SW 24 kph)
- 10SM
Time Weather Temperature Dewpoint Humidity Pressure Winds Precip Visibility


Weather for websites

WeatherForYou.com, LLC is not responsible for any damages or problems caused by this service. Current weather conditions are obtained from the closest station including government and personal stations which may have varying degrees of accuracy. Weather forecasts are derived from the NOAA NDFD. Like all things, this site belongs to Jesus Christ... He just trusts me to maintain it. If you have any questions or comments email webmaster@weatherforyou.com

Copyright © 2014, WeatherForYou.com LLC. All rights reserved.